Location: Unspecified
(0.0000°N, 0.0000°E)
Time: 14:38:48
(UTC+00:00)

Courier 1B - Pass Details

Date: 16 February 2026
Orbit: 962 x 1208 km, 28.3° (Epoch: 16 March)

Event Time Altitude Azimuth Distance (km) Brightness Sun altitude
Exits shadow 03:29:56 39° 70° (ENE) 1,627 8.8 -39.9°
Drops below altitude 10° 03:34:49 10° 102° (ESE) 2,938 10.7 -38.7°
Sets 03:37:36 0° 107° (ESE) 3,858 11.6 -38.0°
